User: anonymous   Login
Location: Borkenes
(68.7830°N, 16.1830°E)
Time: 07:02:22
(UTC+01:00)
Language:

Explorer 7 - Orbit

View from above orbital plane
View from above orbital plane
View from above satellite
View from above satellite

Ground track
Ground track

The orbit data is extracted from the following two-line orbital elements,

1    22U 59009A   19344.14340509 -.00000062  00000-0  18482-4 0  9990
2    22  50.2852 274.9082 0139903 251.7370 106.8310 14.95004319196854
Epoch (UTC): 10 December 2019 03:26:30
Eccentricity: 0.0139903
inclination: 50.2852°
perigee height: 485 km
apogee height: 680 km
right ascension of ascending node: 274.9082°
argument of perigee: 251.7370°
revolutions per day: 14.95004319
mean anomaly at epoch: 106.8310°
orbit number at epoch: 19685

The dashed part of the orbit path shows where the satellite is in the earth's shadow,  

DLR